| time (UTC) | temp C | wind direction | speed KPH | gust KPH | rain 1hr cm | rain 24hr cm | rain mn cm | humidity % | barometer mb |
| 20260504081527 | 11 | 190 | 0.0 | 0.0 | 0.00 | 0.00 | 0.00 | 92 | 1018.0 |
| 20260504050020 | 11 | 165 | 0.0 | 0.0 | 0.00 | 0.00 | 0.00 | 89 | 1019.1 |
| 20260504044530 | 11 | 193 | 0.0 | 0.0 | 0.00 | 0.00 | 0.00 | 89 | 1019.1 |
| 20260504043011 | 12 | 193 | 0.0 | 0.0 | 0.00 | 0.00 | 0.00 | 88 | 1019.2 |
| 20260504041525 | 12 | 188 | 0.0 | 0.0 | 0.00 | 0.00 | 0.00 | 88 | 1019.1 |
| 20260504040025 | 12 | 188 | 0.0 | 0.0 | 0.00 | 0.00 | 0.00 | 87 | 1019.1 |
| 20260504034533 | 12 | 188 | 0.0 | 0.0 | 0.00 | 0.00 | 0.00 | 87 | 1019.1 |
| 20260504033036 | 12 | 188 | 0.0 | 0.0 | 0.00 | 0.00 | 0.00 | 86 | 1019.1 |
| 20260504031523 | 13 | 188 | 0.0 | 0.0 | 0.00 | 0.00 | 0.00 | 85 | 1019.1 |
| 20260504030019 | 13 | 188 | 0.0 | 0.0 | 0.00 | 0.00 | 0.00 | 85 | 1019.1 |
| 20260504024520 | 13 | 188 | 0.0 | 0.0 | 0.00 | 0.00 | 0.00 | 84 | 1019.1 |
| 20260504023012 | 13 | 186 | 0.0 | 0.0 | 0.00 | 0.00 | 0.00 | 82 | 1018.9 |
| 20260504021533 | 14 | 235 | 0.0 | 0.0 | 0.00 | 0.00 | 0.00 | 83 | 1018.7 |
| 20260504020028 | 15 | 235 | 0.0 | 0.0 | 0.00 | 0.00 | 0.00 | 81 | 1018.6 |
| 20260504014525 | 15 | 234 | 0.0 | 0.0 | 0.00 | 0.00 | 0.00 | 81 | 1018.5 |
| 20260504013033 | 15 | 238 | 0.0 | 0.0 | 0.00 | 0.00 | 0.00 | 78 | 1018.4 |
| 20260504011524 | 16 | 238 | 0.0 | 0.0 | 0.00 | 0.00 | 0.00 | 76 | 1018.3 |
| 20260504010022 | 16 | 240 | 0.0 | 0.0 | 0.00 | 0.00 | 0.00 | 74 | 1018.1 |
| 20260504004516 | 17 | 248 | 0.0 | 0.0 | 0.00 | 0.00 | 0.00 | 71 | 1018.1 |
| 20260504003011 | 18 | 248 | 0.0 | 0.0 | 0.00 | 0.00 | 0.00 | 68 | 1018.0 |
| 20260504001527 | 19 | 247 | 0.0 | 0.0 | 0.00 | 0.00 | 0.00 | 62 | 1017.9 |
| 20260504000027 | 20 | 265 | 0.0 | 0.0 | 0.00 | 0.00 | 0.00 | 60 | 1017.8 |
| 20260503234528 | 21 | 265 | 0.0 | 0.0 | 0.00 | 0.00 | 0.00 | 54 | 1018.0 |
| 20260503233026 | 22 | 212 | 0.0 | 1.6 | 0.00 | 0.00 | 0.00 | 49 | 1017.9 |
| 20260503231526 | 23 | 160 | 0.0 | 1.6 | 0.00 | 0.00 | 0.00 | 45 | 1018.0 |
| 20260503230021 | 23 | 70 | 0.0 | 1.6 | 0.00 | 0.00 | 0.00 | 38 | 1017.9 |
| 20260503224519 | 25 | 62 | 1.6 | 6.4 | 0.00 | 0.00 | 0.00 | 42 | 1018.0 |
| 20260503223027 | 25 | 5 | 1.6 | 3.2 | 0.00 | 0.00 | 0.00 | 36 | 1018.1 |
| 20260503221532 | 25 | 30 | 0.0 | 4.8 | 0.00 | 0.00 | 0.00 | 37 | 1018.1 |
| 20260503220012 | 26 | 16 | 0.0 | 1.6 | 0.00 | 0.00 | 0.00 | 35 | 1018.3 |
| 20260503214509 | 25 | 30 | 0.0 | 8.0 | 0.00 | 0.00 | 0.00 | 35 | 1018.6 |
| 20260503213018 | 25 | 125 | 0.0 | 6.4 | 0.00 | 0.00 | 0.00 | 36 | 1018.8 |
| 20260503211507 | 25 | 161 | 0.0 | 4.8 | 0.00 | 0.00 | 0.00 | 38 | 1019.1 |
| 20260503210022 | 24 | 276 | 0.0 | 6.4 | 0.00 | 0.00 | 0.00 | 39 | 1019.1 |
| 20260503204525 | 25 | 270 | 1.6 | 6.4 | 0.00 | 0.00 | 0.00 | 38 | 1019.3 |
| 20260503203020 | 25 | 168 | 1.6 | 6.4 | 0.00 | 0.00 | 0.00 | 36 | 1019.5 |
| 20260503201527 | 25 | 309 | 1.6 | 6.4 | 0.00 | 0.00 | 0.00 | 35 | 1019.8 |
| 20260503200016 | 25 | 210 | 1.6 | 9.7 | 0.00 | 0.00 | 0.00 | 36 | 1020.3 |
| 20260503194510 | 25 | 84 | 3.2 | 6.4 | 0.00 | 0.00 | 0.00 | 35 | 1020.4 |
| 20260503193008 | 25 | 350 | 1.6 | 8.0 | 0.00 | 0.00 | 0.00 | 37 | 1020.6 |
| 20260503191504 | 25 | 38 | 1.6 | 9.7 | 0.00 | 0.00 | 0.00 | 39 | 1020.7 |
| 20260503190026 | 24 | 146 | 1.6 | 4.8 | 0.00 | 0.00 | 0.00 | 38 | 1020.9 |
| 20260503184526 | 23 | 75 | 1.6 | 9.7 | 0.00 | 0.00 | 0.00 | 37 | 1021.1 |
| 20260503183027 | 24 | 352 | 1.6 | 4.8 | 0.00 | 0.00 | 0.00 | 37 | 1021.4 |
| 20260503181528 | 23 | 205 | 1.6 | 11.3 | 0.00 | 0.00 | 0.00 | 43 | 1021.5 |
| 20260503180016 | 23 | 1 | 0.0 | 0.0 | 0.00 | 0.00 | 0.00 | 36 | 1021.6 |
| 20260503174511 | 23 | 6 | 0.0 | 0.0 | 0.00 | 0.00 | 0.00 | 38 | 1021.6 |
| 20260503173035 | 23 | 234 | 0.0 | 0.0 | 0.00 | 0.00 | 0.00 | 37 | 1021.7 |
| 20260503171528 | 23 | 77 | 0.0 | 0.0 | 0.00 | 0.00 | 0.00 | 39 | 1022.2 |